�N����,����,�~����,�C��,���x,�C��,����,���ϕ���,�ő�u�ԕ���,�ő厞����,���˗�,�I�_���x,�n�����x,�ő啗���N��,DTYPE
"20/07/07","00:10",0.0,26.5,89.5,1000.8,222.7,2.1,5.8,232.0,0.00,24.7,23.9,"00:02:16",1
"20/07/07","00:20",0.0,26.7,89.0,1001.2,194.6,1.0,2.7,119.0,0.00,24.8,23.8,"00:16:32",1
"20/07/07","00:30",0.0,26.8,88.4,1001.2,105.4,1.2,3.5,206.1,0.00,24.8,23.9,"00:27:20",1
"20/07/07","00:40",0.0,26.8,87.8,1001.5,182.6,1.6,3.5,181.6,0.00,24.6,23.8,"00:39:36",1
"20/07/07","00:50",0.0,27.0,86.9,1001.7,217.1,2.5,7.8,224.7,0.00,24.7,23.9,"00:40:40",1
"20/07/07","01:00",0.0,27.2,85.7,1001.2,214.9,3.1,10.2,209.8,0.00,24.6,23.9,"00:55:44",1
"20/07/07","01:10",0.0,27.2,85.2,1001.2,228.1,3.0,7.2,198.5,0.00,24.5,24.0,"01:07:12",1
"20/07/07","01:20",0.4,27.0,85.4,1000.8,223.2,2.1,5.5,204.8,0.00,24.4,23.8,"01:14:24",1
"20/07/07","01:30",1.0,26.8,86.0,1001.5,248.5,2.3,7.7,226.8,0.00,24.3,24.0,"01:23:12",1
"20/07/07","01:40",6.8,25.9,87.0,1001.0,288.3,2.2,5.2,225.4,0.00,23.6,24.1,"01:33:04",1
"20/07/07","01:50",0.4,25.8,88.4,1001.2,261.3,2.1,5.6,311.0,0.00,23.8,23.9,"01:44:32",1
"20/07/07","02:00",0.0,25.8,89.0,1001.0,320.7,1.0,4.5,320.8,0.00,23.9,23.9,"01:54:32",1
"20/07/07","02:10",0.0,25.9,89.5,1000.8,250.1,1.5,4.1,277.4,0.00,24.1,24.2,"02:04:08",1
"20/07/07","02:20",0.2,26.0,89.6,1001.0,235.8,1.6,3.6,206.1,0.00,24.2,23.9,"02:18:48",1
"20/07/07","02:30",0.0,26.0,89.7,1001.0,257.5,1.1,3.5,341.2,0.00,24.2,23.9,"02:27:44",1
"20/07/07","02:40",0.0,26.1,89.8,1001.0,188.4,1.2,2.9,228.7,0.00,24.3,23.9,"02:37:52",1
"20/07/07","02:50",0.0,26.2,89.8,1000.8,229.7,1.2,2.5,232.3,0.00,24.4,24.0,"02:43:52",1
"20/07/07","03:00",0.0,26.2,89.6,1000.8,214.6,1.5,4.8,224.8,0.00,24.4,23.7,"02:50:56",1
"20/07/07","03:10",0.0,26.4,89.3,1001.0,237.6,1.5,3.9,165.6,0.00,24.5,24.1,"03:02:32",1
"20/07/07","03:20",0.0,26.3,89.2,1000.8,214.6,1.0,3.1,199.2,0.00,24.4,24.0,"03:17:44",1
"20/07/07","03:30",0.0,26.3,89.1,1001.2,211.2,1.1,3.7,158.3,0.00,24.4,24.0,"03:23:36",1
"20/07/07","03:40",0.0,26.3,89.0,1000.5,249.8,0.7,3.2,221.6,0.00,24.4,23.9,"03:30:08",1
"20/07/07","03:50",0.0,26.2,89.0,1000.8,283.2,0.8,3.2,238.0,0.00,24.3,24.1,"03:43:28",1
"20/07/07","04:00",0.0,26.2,89.1,1000.8,185.9,0.7,1.6,294.8,0.00,24.3,24.0,"03:50:48",1
"20/07/07","04:10",0.0,26.3,89.2,1000.3,195.4,1.1,3.2,226.5,0.00,24.4,24.0,"04:06:32",1
"20/07/07","04:20",0.0,26.3,89.1,1000.8,202.8,1.0,2.1,241.8,0.00,24.4,23.9,"04:13:36",1
"20/07/07","04:30",0.0,26.2,89.2,1000.5,222.9,1.0,2.2,101.2,0.00,24.3,24.0,"04:27:28",1
"20/07/07","04:40",0.0,26.1,89.3,1000.5,77.2,0.6,1.2,350.5,0.00,24.2,23.8,"04:30:56",1
"20/07/07","04:50",0.0,26.1,89.5,1000.8,69.9,1.0,4.8,105.9,0.00,24.3,24.1,"04:44:00",1
"20/07/07","05:00",0.0,25.9,89.8,1000.8,175.2,0.7,1.8,116.4,0.00,24.1,23.9,"04:52:00",1
"20/07/07","05:10",0.0,25.9,90.0,1000.8,228.1,0.7,1.8,356.6,0.00,24.2,24.0,"05:06:48",1
"20/07/07","05:20",0.0,25.9,90.2,1001.0,323.2,0.6,1.9,114.2,0.00,24.2,24.0,"05:18:48",1
"20/07/07","05:30",0.0,26.0,90.4,1001.2,156.7,1.3,3.7,214.1,0.00,24.3,24.0,"05:25:20",1
"20/07/07","05:40",0.0,26.1,90.2,1000.8,207.9,1.5,5.0,204.8,0.00,24.4,23.9,"05:37:36",1
"20/07/07","05:50",0.0,26.5,89.7,1001.0,188.6,1.5,3.6,214.5,0.00,24.7,23.9,"05:40:16",1
"20/07/07","06:00",0.0,26.5,89.3,1001.0,157.9,1.1,2.6,125.8,0.00,24.6,24.0,"05:56:08",1
"20/07/07","06:10",0.0,26.7,88.9,1001.0,293.9,0.7,1.7,238.4,0.00,24.8,24.0,"06:04:32",1
"20/07/07","06:20",0.0,26.6,88.3,1001.5,174.0,1.3,3.2,168.9,0.00,24.5,24.2,"06:13:52",1
"20/07/07","06:30",0.0,26.8,87.4,1000.5,205.2,2.1,6.2,308.7,0.01,24.6,23.9,"06:28:08",1
"20/07/07","06:40",0.0,26.7,87.0,1001.2,190.1,2.5,4.5,218.5,0.00,24.4,24.2,"06:31:12",1
"20/07/07","06:50",0.0,26.8,86.7,1001.2,191.6,2.3,6.0,233.5,0.01,24.4,24.2,"06:46:24",1
"20/07/07","07:00",0.2,26.8,86.4,1001.2,204.7,2.2,4.5,229.3,0.01,24.4,23.7,"06:51:12",1
"20/07/07","07:10",0.0,26.9,86.1,1001.2,200.5,2.2,4.3,198.2,0.01,24.4,24.2,"07:02:32",1
"20/07/07","07:20",0.0,26.8,86.7,1001.5,183.4,2.2,4.4,184.5,0.01,24.4,24.2,"07:16:40",1
"20/07/07","07:30",0.2,26.7,87.3,1001.2,188.1,2.2,5.4,208.6,0.02,24.5,24.2,"07:21:52",1
"20/07/07","07:40",0.0,26.7,87.6,1001.0,191.6,2.7,6.5,193.8,0.03,24.5,24.2,"07:33:44",1
"20/07/07","07:50",0.2,26.8,87.6,1001.5,189.8,2.7,5.7,200.7,0.06,24.6,23.9,"07:41:28",1
"20/07/07","08:00",0.0,26.8,87.1,1001.5,201.3,2.5,5.6,192.6,0.03,24.5,24.0,"07:50:16",1
"20/07/07","08:10",0.0,26.9,87.1,1001.5,179.9,1.5,3.9,174.0,0.04,24.6,24.2,"08:05:36",1
"20/07/07","08:20",0.2,26.9,87.0,1001.2,210.4,1.8,3.9,133.4,0.03,24.6,24.3,"08:18:56",1
"20/07/07","08:30",0.2,26.7,86.8,1001.2,243.9,1.3,4.1,218.9,0.03,24.4,24.1,"08:28:16",1
"20/07/07","08:40",0.0,26.6,86.4,1001.2,192.3,2.1,4.7,201.7,0.03,24.2,24.4,"08:34:48",1
"20/07/07","08:50",0.0,26.7,85.8,1001.2,209.7,2.5,5.6,208.4,0.06,24.2,24.1,"08:45:12",1
"20/07/07","09:00",0.0,26.8,85.4,1001.2,233.4,2.0,4.8,213.0,0.09,24.2,24.1,"08:53:12",1
"20/07/07","09:10",0.0,27.2,84.7,1001.2,250.0,1.3,4.3,117.5,0.11,24.4,24.3,"09:03:04",1
"20/07/07","09:20",0.0,27.3,84.0,1001.0,225.6,1.2,4.1,222.1,0.11,24.4,24.4,"09:11:04",1
"20/07/07","09:30",0.0,27.2,83.6,1000.8,347.2,1.3,4.3,314.4,0.07,24.2,24.4,"09:24:48",1
"20/07/07","09:40",0.0,27.3,83.4,1001.2,257.6,0.8,2.0,245.9,0.07,24.3,24.2,"09:37:36",1
"20/07/07","09:50",0.0,27.3,83.2,1001.0,252.9,2.1,5.4,233.2,0.07,24.2,24.5,"09:47:36",1
"20/07/07","10:00",0.0,27.4,82.3,1001.2,228.8,2.1,5.2,157.3,0.08,24.2,24.3,"09:50:56",1
"20/07/07","10:10",0.0,27.8,81.4,1001.5,257.1,2.3,5.2,224.0,0.12,24.4,24.6,"10:04:16",1
"20/07/07","10:20",0.0,28.3,81.1,1001.5,236.0,2.3,5.6,214.8,0.28,24.8,24.5,"10:18:32",1
"20/07/07","10:30",0.0,28.8,79.2,1001.0,209.0,2.7,5.7,201.2,0.29,24.9,24.4,"10:29:12",1
"20/07/07","10:40",0.0,28.1,79.0,1001.0,240.9,3.2,6.8,304.9,0.14,24.2,24.7,"10:39:12",1
"20/07/07","10:50",0.2,27.7,80.2,1001.0,260.8,2.0,5.4,271.3,0.06,24.0,24.6,"10:47:20",1
"20/07/07","11:00",0.0,27.4,81.7,1001.0,266.5,1.2,3.6,221.8,0.08,24.0,24.7,"10:52:08",1
"20/07/07","11:10",0.0,27.4,82.7,1001.0,301.5,1.1,3.9,346.8,0.03,24.2,25.0,"11:08:16",1
"20/07/07","11:20",1.4,26.8,83.9,1001.0,290.5,1.2,3.7,343.7,0.02,23.9,24.8,"11:10:16",1
"20/07/07","11:30",0.2,26.4,85.8,1001.0,328.6,1.7,4.0,332.7,0.04,23.9,24.7,"11:21:52",1
"20/07/07","11:40",0.0,26.3,87.0,1001.0,306.2,1.6,2.9,326.2,0.11,24.0,24.8,"11:35:52",1
"20/07/07","11:50",0.0,26.6,87.4,1001.5,296.3,1.1,2.2,302.5,0.15,24.4,24.8,"11:44:00",1
"20/07/07","12:00",0.0,27.1,87.2,1001.2,254.9,0.6,2.0,247.8,0.13,24.8,24.8,"11:55:04",1
"20/07/07","12:10",0.0,27.1,87.1,1001.2,348.7,1.1,3.5,327.8,0.14,24.8,25.0,"12:04:40",1
"20/07/07","12:20",0.0,27.1,86.4,1001.2,319.8,1.3,2.8,347.7,0.09,24.7,24.9,"12:15:20",1
"20/07/07","12:30",0.0,27.3,85.8,1001.2,331.5,1.2,2.7,343.5,0.09,24.8,25.1,"12:25:36",1
"20/07/07","12:40",0.0,27.5,85.7,1001.2,304.6,0.7,1.4,343.3,0.07,24.9,25.1,"12:34:16",1
"20/07/07","12:50",0.0,27.3,85.2,1000.8,287.9,1.0,3.3,338.8,0.08,24.6,24.9,"12:43:28",1
"20/07/07","13:00",0.0,27.5,84.6,1001.0,261.8,1.0,3.7,234.6,0.08,24.7,25.2,"12:51:12",1
"20/07/07","13:10",0.0,27.5,83.8,1000.5,313.0,0.7,1.6,322.5,0.07,24.6,25.0,"13:06:24",1
"20/07/07","13:20",0.0,27.4,83.5,1001.0,313.2,0.8,1.7,348.9,0.07,24.4,25.0,"13:11:20",1
"20/07/07","13:30",0.0,27.7,83.4,1001.0,351.9,0.6,1.7,358.6,0.11,24.7,25.1,"13:29:04",1
"20/07/07","13:40",0.0,27.6,83.3,1000.8,12.4,0.7,2.2,339.8,0.08,24.6,25.5,"13:38:48",1
"20/07/07","13:50",0.0,27.3,83.8,1001.0,324.8,1.7,2.6,329.6,0.12,24.4,25.2,"13:44:56",1
"20/07/07","14:00",0.0,27.5,83.1,1001.0,298.4,1.6,4.3,354.6,0.24,24.4,25.4,"13:58:00",1
"20/07/07","14:10",0.0,27.5,81.3,1001.0,274.5,1.7,3.9,243.5,0.23,24.0,25.3,"14:05:04",1
"20/07/07","14:20",0.0,27.4,80.1,1000.5,267.2,1.5,4.0,281.5,0.14,23.7,25.6,"14:12:00",1
"20/07/07","14:30",0.0,26.9,79.9,1000.8,272.0,2.3,5.2,221.5,0.08,23.2,25.6,"14:20:32",1
"20/07/07","14:40",0.0,26.4,81.0,1001.5,275.6,1.5,3.5,330.4,0.05,22.9,25.5,"14:39:28",1
"20/07/07","14:50",0.0,25.9,82.4,1001.5,300.8,1.2,3.5,275.8,0.06,22.7,25.4,"14:40:08",1
"20/07/07","15:00",0.0,25.6,83.4,1001.5,294.8,1.3,2.5,343.0,0.04,22.6,25.4,"14:58:48",1
"20/07/07","15:10",0.0,25.5,84.2,1001.5,295.8,1.3,2.6,349.1,0.04,22.7,25.2,"15:06:16",1
"20/07/07","15:20",0.0,25.4,85.0,1001.2,280.4,1.2,3.1,328.5,0.08,22.7,25.4,"15:14:24",1
"20/07/07","15:30",0.0,25.5,85.4,1001.2,275.2,1.2,2.5,247.2,0.09,22.9,25.4,"15:26:08",1
"20/07/07","15:40",0.0,25.4,85.7,1000.8,290.3,1.2,3.2,352.2,0.09,22.9,25.3,"15:35:36",1
"20/07/07","15:50",0.0,25.4,85.7,1001.2,304.9,1.5,3.1,332.4,0.08,22.9,25.1,"15:41:04",1
"20/07/07","16:00",0.0,25.4,85.5,1001.5,296.2,1.5,3.4,347.1,0.07,22.8,25.2,"15:51:36",1
"20/07/07","16:10",0.0,25.4,85.4,1000.8,299.3,2.0,4.4,326.8,0.07,22.8,25.1,"16:06:56",1
"20/07/07","16:20",0.0,25.2,85.0,1000.8,289.5,1.6,3.4,334.9,0.06,22.5,25.0,"16:14:24",1
"20/07/07","16:30",0.0,25.3,84.9,1000.8,276.5,1.1,2.7,317.8,0.05,22.6,25.2,"16:20:16",1
"20/07/07","16:40",0.0,25.3,84.7,1001.0,268.7,1.0,2.5,322.8,0.04,22.6,25.2,"16:38:56",1
"20/07/07","16:50",0.0,25.3,84.7,1000.5,259.7,0.6,2.1,236.8,0.03,22.6,25.1,"16:44:48",1
"20/07/07","17:00",0.0,25.2,84.5,1000.3,246.0,0.7,1.9,195.3,0.03,22.4,25.1,"16:50:56",1
"20/07/07","17:10",0.0,25.2,84.6,1000.8,197.4,0.3,1.1,243.3,0.02,22.5,25.1,"17:04:08",1
"20/07/07","17:20",0.0,25.0,84.6,1000.8,237.8,0.7,2.0,219.2,0.02,22.3,25.1,"17:12:32",1
"20/07/07","17:30",0.0,25.0,84.6,1000.3,207.5,0.7,2.5,128.4,0.02,22.3,25.0,"17:22:24",1
"20/07/07","17:40",0.0,25.0,84.6,1000.5,338.8,0.8,1.7,0.4,0.01,22.3,24.9,"17:37:12",1
"20/07/07","17:50",0.0,25.1,84.9,1000.8,353.7,0.8,1.8,7.7,0.00,22.4,24.8,"17:41:52",1
"20/07/07","18:00",0.0,24.9,85.4,1000.8,329.4,0.6,1.2,339.6,0.00,22.3,24.8,"17:53:36",1
"20/07/07","18:10",0.0,24.7,85.9,1001.0,317.6,0.3,1.2,332.4,0.00,22.2,24.9,"18:01:52",1
"20/07/07","18:20",0.0,24.8,86.5,1001.5,318.3,1.0,2.1,341.4,0.00,22.4,24.9,"18:16:56",1
"20/07/07","18:30",0.0,24.5,86.9,1001.2,279.3,0.6,1.4,262.5,0.00,22.2,24.7,"18:24:48",1
"20/07/07","18:40",0.0,24.6,87.3,1001.5,322.9,0.7,1.2,340.1,0.00,22.4,24.6,"18:35:36",1
"20/07/07","18:50",0.0,24.4,87.6,1001.7,314.9,0.3,1.3,335.4,0.00,22.2,24.6,"18:40:40",1
"20/07/07","19:00",0.0,24.3,87.9,1001.7,324.3,0.7,1.1,310.9,0.00,22.2,24.8,"18:59:36",1
"20/07/07","19:10",0.0,24.3,88.5,1001.2,323.5,1.1,2.2,231.2,0.00,22.3,24.7,"19:07:12",1
"20/07/07","19:20",0.2,24.1,88.9,1001.5,287.2,1.0,2.5,41.9,0.00,22.2,24.8,"19:10:08",1
"20/07/07","19:30",0.0,23.9,89.3,1001.2,247.9,0.8,1.8,1.6,0.00,22.1,24.4,"19:29:36",1
"20/07/07","19:40",0.0,23.9,89.6,1001.5,280.9,0.6,1.3,227.2,0.00,22.1,24.4,"19:37:28",1
"20/07/07","19:50",0.0,23.9,90.1,1001.7,271.6,0.5,0.9,220.7,0.00,22.2,24.6,"19:48:24",1
"20/07/07","20:00",0.0,23.8,90.1,1001.7,264.0,0.7,1.3,246.0,0.00,22.1,24.7,"19:53:04",1
"20/07/07","20:10",0.0,23.9,90.3,1001.7,332.2,0.8,1.8,345.5,0.00,22.3,24.6,"20:04:00",1
"20/07/07","20:20",0.0,23.8,90.5,1001.9,321.5,0.7,1.4,312.0,0.00,22.2,24.4,"20:15:36",1
"20/07/07","20:30",0.0,23.8,90.7,1002.2,321.7,1.0,1.8,333.9,0.00,22.2,24.6,"20:28:00",1
"20/07/07","20:40",0.0,23.7,91.0,1001.9,336.3,0.6,1.7,332.8,0.00,22.2,24.5,"20:39:36",1
"20/07/07","20:50",0.0,23.6,91.2,1001.9,14.8,0.3,1.0,323.0,0.00,22.1,24.5,"20:40:48",1
"20/07/07","21:00",0.0,23.5,91.5,1001.9,13.2,0.5,1.6,348.9,0.00,22.1,24.4,"20:59:52",1
"20/07/07","21:10",0.0,23.4,91.6,1002.2,331.9,0.8,1.7,342.0,0.00,22.0,24.4,"21:00:40",1
"20/07/07","21:20",0.2,23.4,91.8,1001.7,297.0,0.8,1.3,319.4,0.00,22.0,24.3,"21:12:56",1
"20/07/07","21:30",0.0,23.4,91.9,1001.5,324.7,1.0,1.6,348.5,0.00,22.0,24.4,"21:27:44",1
"20/07/07","21:40",0.0,23.4,92.1,1002.2,314.4,1.0,1.4,329.5,0.00,22.1,24.2,"21:33:28",1
"20/07/07","21:50",0.0,23.3,92.2,1001.9,293.3,0.6,1.1,315.7,0.00,22.0,24.2,"21:49:36",1
"20/07/07","22:00",0.0,23.3,92.3,1001.7,310.1,1.0,1.6,329.6,0.00,22.0,24.3,"21:53:04",1
"20/07/07","22:10",0.0,23.3,92.5,1001.2,317.4,1.0,1.2,328.4,0.00,22.1,24.1,"22:03:52",1
"20/07/07","22:20",0.0,23.2,92.6,1001.2,278.6,0.8,1.4,270.5,0.00,22.0,24.3,"22:12:00",1
"20/07/07","22:30",0.0,23.2,92.7,1001.5,327.8,0.8,1.2,346.6,0.00,22.0,24.2,"22:29:52",1
"20/07/07","22:40",0.0,23.2,92.8,1001.5,342.4,1.0,1.7,348.2,0.00,22.0,24.2,"22:33:04",1
"20/07/07","22:50",0.0,23.2,92.9,1001.5,324.2,0.8,1.3,344.2,0.00,22.0,24.2,"22:45:28",1
"20/07/07","23:00",0.0,23.2,93.0,1001.2,303.4,0.5,1.3,317.3,0.00,22.0,24.2,"22:58:48",1
"20/07/07","23:10",0.0,23.2,93.1,1001.2,296.7,0.7,1.1,321.2,0.00,22.1,24.2,"23:08:48",1
"20/07/07","23:20",0.0,23.1,93.2,1001.5,301.5,0.8,1.3,326.0,0.00,22.0,24.0,"23:17:36",1
"20/07/07","23:30",0.0,23.2,93.3,1001.0,339.1,1.0,1.9,337.1,0.00,22.1,24.0,"23:28:40",1
"20/07/07","23:40",0.0,23.2,93.4,1001.2,329.8,1.1,1.4,345.9,0.00,22.1,24.2,"23:32:56",1
"20/07/07","23:50",0.0,23.2,93.4,1001.0,332.5,1.0,1.3,339.5,0.00,22.1,23.9,"23:45:20",1
"20/07/07","24:00",0.0,23.1,93.5,1000.3,296.2,0.7,1.2,322.4,0.00,22.0,24.1,"23:50:40",1
